Regional Weather Roundup
Issued by NWS

Home | Current Version | Previous Version | Graphics & Text | Print | Product List | Glossary On
Versions: 1 2 3 4 5 6 7 8 9 10 11 12 13 14 15 16 17 18 19 20 21 22 23 24 25 26 27 28 29 30 31 32 33 34 35 36 37 38 39 40 41 42 43 44 45 46 47 48 49 50
425
ASUS45 KSLC 261910
RWRUT

UTAH REGIONAL WEATHER ROUNDUP
NATIONAL WEATHER SERVICE SALT LAKE CITY UT
100 PM MDT FRI MAY 26 2017

UTZ001>011-023>025-262000-

NORTHERN UTAH

CITY           SKY/WX    TMP DP  RH WIND       PRES   REMARKS
BRIGHAM CITY   MOSUNNY   63  33  33 SW9       29.88R
HILL AFB       MOSUNNY   61  35  37 W17       29.89R
LOGAN          MOSUNNY   64  37  36 W12G17    29.85R
OGDEN          MOSUNNY   62  36  37 VRB3G17   29.88R
SALT LAKE CITY PTSUNNY   64  40  41 N12       29.88R
TOOELE VALLEY  MOSUNNY   63  43  48 NE7       29.90R
WENDOVER       MOSUNNY   66  30  26 N13G22    29.86R
HEBER CITY     PTSUNNY   61  34  36 N9G16     29.84R
WEST JORDAN    PTSUNNY   60  46  59 NW13      29.90R

$$

UTZ011>015-024>027-262000-

CENTRAL/NORTHEAST UTAH

CITY           SKY/WX    TMP DP  RH WIND       PRES   REMARKS
PROVO AIRPORT  MOSUNNY   66  37  34 NW14      29.85R
MOAB/CANYONLAN SUNNY     82  15   8 S18G29    29.74F
DELTA          SUNNY     70  27  19 NW9       29.83S
PRICE          SUNNY     71  28  20 VRB6      29.81F
ROOSEVELT      MOSUNNY   70  32  24 S3        29.79F
VERNAL         SUNNY     74  33  22 SW10      29.78F

$$

UTZ013>016-019>022-027-262000-

SOUTHERN UTAH

CITY           SKY/WX    TMP DP  RH WIND       PRES   REMARKS
BRYCE CANYON   SUNNY     66  24  20 SW22G28   29.98S
CEDAR CITY     SUNNY     73  21  14 S22G32    29.87S
MILFORD        SUNNY     78  23  13 S21G37    29.81F
ST GEORGE      MOCLDY    82  27  13 VRB6      29.78S
HANKSVILLE     SUNNY     82  19   9 SW13G30   29.77F
BLANDING       SUNNY     72  16  11 S16G28    30.00F

$$

REGIONAL REPORTS     COLORADO/ARIZONA

CITY           SKY/WX    TMP DP  RH WIND       PRES   REMARKS
CRAIG, CO      CLOUDY    71  34  25 SW23G30   29.83F
GRAND JUNCTION SUNNY     79  20  11 S10G29    29.79F
RIFLE, CO      MOSUNNY   76  18  11 S20G28    29.82F
MONTROSE, CO   CLOUDY    74  19  12 W15G25    29.90F
CORTEZ, CO     SUNNY     74  15  10 S14G24    29.98F
COLORADO CITY    N/A     81  27  13 SW20      29.91S
PAGE, AZ       SUNNY     80  16   9 CALM      29.83S
GRAND CANYON   SUNNY     69  21  16 SW18G33   30.02S
KINGMAN, AZ    SUNNY     81  30  15 SW25G31   29.88S
FLAGSTAFF, AZ  SUNNY     64  15  15 SW17G33   30.08R

$$

REGIONAL REPORTS    NEVADA/IDAHO/WYOMING

CITY           SKY/WX    TMP DP  RH WIND       PRES   REMARKS
LAS VEGAS, NV  SUNNY     84  24  11 VRB7G17   29.76S
ELY, NY        MOSUNNY   65  23  20 W18G29    29.92S
ELKO, NV       PTSUNNY   61  29  29 SW15G25   29.95R
POCATELLO, ID  CLOUDY    45  42  89 S9        29.94R
BURLEY, ID     LGT RAIN  47  44  90 NE7       29.93R
FORT BRIDGER,  CLOUDY    51  33  51 W24G33    29.94R
EVANSTON, WY   CLOUDY    50  35  56 SW20G28   29.91R
ROCK SPRINGS,  CLOUDY    56  37  49 NW16      29.88R
KEMMERER, WY     N/A     46  36  66 S13       29.90F

$$




USA.gov is the U.S. government's official web portal to all federal, state and local government web resources and services.